Regional Weather Roundup
Issued by NWS

Home | Current Version | Previous Version | Text Only | Print | Product List | Glossary On
Versions: 1 2 3 4 5 6 7 8 9 10 11 12 13 14 15 16 17 18 19 20 21 22 23 24 25 26 27 28
000
ASUS45 KPSR 240110
RWRAZ

ARIZONA HOURLY REGIONAL WEATHER ROUNDUP
NATIONAL WEATHER SERVICE PHOENIX AZ
600 PM MST MON JAN 23 2017

NOTE: FAIR INDICATES FEW OR NO CLOUDS BELOW 12,000 FEET WITH NO
SIGNIFICANT WEATHER AND/OR OBSTRUCTIONS TO VISIBILITY.

AZZ001>003-036-240200-
NORTHWEST ARIZONA

CITY           SKY/WX    TMP DP  RH WIND       PRES   REMARKS
BULLHEAD CITY  CLOUDY    52  39  62 CALM      29.74F
KINGMAN        LGT RAIN  38  34  85 S8        29.72F WCI  32
$$

AZZ004>008-015-016-018-240200-
NORTH CENTRAL ARIZONA

CITY           SKY/WX    TMP DP  RH WIND       PRES   REMARKS
GRAND CANYON   CLOUDY    27  27 100 SW10      29.67S WCI  17
WILLIAMS       CLOUDY    30  25  80 SW23G36   29.68F WCI  17
PRESCOTT       CLOUDY    36  31  82 SW15      29.73F WCI  27
FLAGSTAFF      CLOUDY    28  25  88 SW18G25   29.68S WCI  15
PAYSON         DRIZZLE   37  36  93 SW14G24   29.78R WCI  29
PAGE           CLOUDY    40  26  57 W7        29.64F
$$

AZZ009>014-017-240200-
NORTHEAST ARIZONA

CITY           SKY/WX    TMP DP  RH WIND       PRES   REMARKS
WINSLOW        CLOUDY    41  34  76 SW18G26   29.71R
SAINT JOHNS    CLOUDY    46  31  55 SW20G33   29.67F
SHOW LOW       LGT SNOW  32  32 100 SW17      29.71S WCI  21
$$

AZZ023-240200-
GREATER PHOENIX AREA

CITY           SKY/WX    TMP DP  RH WIND       PRES   REMARKS
PHOENIX        MOCLDY    56  47  71 NW6       29.74F
BUCKEYE        CLOUDY    57  39  51 W10       29.76S
GLENDALE       MOCLDY    54  54 100 CALM      29.77F
LUKE AFB       MOCLDY    54  54  99 SE5       29.74S
DEER VALLEY    CLOUDY    51  49  92 E5        29.75F
SCOTTSDALE     CLOUDY    52  47  83 CALM      29.76F
MESA-FALCON    CLOUDY   N/A N/A N/A N12       29.73F
MESA-GATEWAY   MOCLDY    55  48  76 NW9       29.76S
CHANDLER       CLOUDY    57  48  72 NW8       29.75S
$$

AZZ027-028-240200-
SOUTHWEST MARICOPA COUNTY AND PINAL COUNTY

CITY           SKY/WX    TMP DP  RH WIND       PRES   REMARKS
CASA GRANDE    LGT RAIN  54  52  93 S9        29.77S
GILA BEND      MOCLDY    60  40  47 W8        29.75S
$$

AZZ503-504-507>509-240200-
SOUTHEAST ARIZONA

CITY           SKY/WX    TMP DP  RH WIND       PRES   REMARKS
TUCSON         CLOUDY    61  39  44 SW16G26   29.80F
DAVIS-MONTHAN  CLOUDY    60  39  45 SW14G24   29.78F
RYAN FIELD     CLEAR     61  39  44 SW23G29   29.80F
NOGALES        MOCLDY    55  43  63 SW14      29.83F
SIERRA VISTA   FAIR      54  37  52 SW14G22   29.83F
DOUGLAS        FAIR      59  34  39 SW20G28   29.82F
SAFFORD        MOCLDY    61  34  36 W13       29.73R
$$

AZZ020-021-025-026-031-240200-
SOUTHWEST ARIZONA

CITY           SKY/WX    TMP DP  RH WIND       PRES   REMARKS
YUMA           CLOUDY    56  39  53 NW23G33   29.81R
$$

CAZ031-033-041-043-047-048-061-240200-
SOUTHERN CALIFORNIA

CITY           SKY/WX    TMP DP  RH WIND       PRES   REMARKS
DOWNTOWN L.A.  MOCLDY    55  43  63 W7        29.84R
L.A. AIRPORT   PTCLDY    53  44  71 W22       29.85R
SAN DIEGO      MOCLDY    54  43  66 NW16G24   29.91R
BURBANK        MOCLDY    51  38  60 W9        29.82R
ONTARIO        LGT RAIN  45  39  79 W17       29.84R
RIVERSIDE      MOCLDY    49  41  74 W6        29.83S
PALM SPRINGS   CLOUDY    49  42  77 NE9       29.80R
EL CENTRO NAS  MOCLDY    54  40  59 W12       29.85S
IMPERIAL       CLOUDY    54  42  64 W8        29.84R
BLYTHE         MOCLDY    56  39  53 SW16      29.78R
NEEDLES        CLOUDY    55  35  47 W13       29.73F
$$

NVZ020-UTZ003-240200-
SOUTHERN NEVADA-UTAH

CITY           SKY/WX    TMP DP  RH WIND       PRES   REMARKS
LAS VEGAS      MOCLDY    47  31  53 S12       29.65S
SALT LAKE CITY FLURRIES  33  31  92 W10       29.58R WCI  25
$$

NMZ009-TXZ055-240200-
NEW MEXICO-WEST TEXAS

CITY           SKY/WX    TMP DP  RH WIND       PRES   REMARKS
ALBUQUERQUE    PTCLDY    52  22  30 SW13      29.71S
EL PASO        PTCLDY    61  25  25 SE9       29.78F
$$


........................KEY........................
SKY/WX - SKY CONDITION/WEATHER
TMP    - TEMPERATURE IN FAHRENHEIT
DP     - DEW POINT IN FAHRENHEIT
RH     - RELATIVE HUMIDITY IN PERCENT
WIND   - DIRECTION AND SPEED IN MILES PER HOUR (MPH)
VRB    - VARIABLE WIND DIRECTION
PRES   - MEAN SEA LEVEL PRESSURE IN INCHES OF MERCURY
         F - FALLING PRESSURE   R - RISING PRESSURE
         S - STEADY PRESSURE
VSB    - VISIBILITY IN MILES
HX     - HEAT INDEX IN FAHRENHEIT
WCI    - WIND CHILL INDEX IN FAHRENHEIT
TC     - TEMPERATURE IN CELSIUS WHICH IS ALSO KNOWN AS
         TEMPERATURE IN CENTIGRADE
AFB    - AIR FORCE BASE
         LUKE AFB IS LUKE AIR FORCE BASE
         DAVIS-MONTHAN IS DAVIS-MONTHAN AIR FORCE BASE
NAS    - NAVAL AIR STATION
         EL CENTRO NAS IS EL CENTRO NAVAL AIR STATION
N/A    - NOT AVAILABLE





USA.gov is the U.S. government's official web portal to all federal, state and local government web resources and services.